Back to catalog

METEOR 2-14

AliveWeatherPO
NORAD 16735·PAYLOAD·🇷🇺 Russia

Launched May 27, 1986 from Plesetsk Cosmodrome

Loading…

Next Passes (next 24 hours)

TLE

FreshSource: Space-Track

Epoch: Sep 14, 2026, 15:35 UTC

1 16735U 86039A   26257.64996571  .00000049  00000-0  30263-4 0  9998
2 16735  82.5363 212.5023 0013632 316.9888 216.3528 13.85556882 37080

Track METEOR 2-14 in real time with AllMySat

Download on the App Store